1489255200.63,39073,9.06,73090.0,-11.51,-46.89,-46.89,0,*6A
1489255201.89,39074,9.06,73092.8,-11.51,-47.23,-47.09,0,*65
1489255203.18,39075,9.06,73090.5,-11.51,-47.23,-47.23,0,*6C
1489255204.44,39076,9.06,73090.5,-11.55,-47.23,-47.09,0,*63
1489255205.68,39077,9.06,73090.3,-11.55,-47.31,-47.09,0,*61
1489255206.9,39078,9.06,73090.8,-11.57,-47.09,-47.09,0,*67
1489255208.11,39079,9.06,73092.8,-11.57,-47.17,-46.97,0,*6F
1489255209.37,39080,9.06,73094.5,-11.57,-47.03,-46.89,0,*63
1489255210.66,39081,9.06,73092.0,-11.55,-46.61,-46.69,0,*6B
1489255211.93,39082,9.06,73092.3,-11.57,-46.49,-46.41,0,*6A
1489255213.19,39083,9.06,73094.0,-11.57,-46.61,-46.41,0,*61
1489255214.43,39084,9.06,73096.5,-11.59,-47.09,-46.97,0,*6C
1489255215.7,39085,9.06,73098.0,-11.59,-46.75,-46.49,0,*64
1489255216.99,39086,9.06,73094.8,-11.59,-46.61,-46.41,0,*6A
1489255218.28,39087,9.06,73096.3,-11.59,-46.49,-46.27,0,*61
1489255219.51,39088,9.06,73098.3,-11.61,-46.21,-46.01,0,*6F
1489255220.76,39089,9.06,73098.8,-11.59,-45.67,-45.47,0,*65
1489255222.03,39090,9.06,73098.5,-11.59,-45.41,-45.27,0,*6F
1489255223.26,39091,9.06,73102.0,-11.57,-45.87,-45.47,0,*6C
1489255224.46,39092,9.06,73098.8,-11.57,-45.87,-45.67,0,*6D
1489255225.68,39093,9.06,73096.5,-11.57,-46.01,-45.67,0,*61
1489255226.89,39094,9.06,73098.8,-11.57,-45.67,-45.61,0,*63
1489255228.12,39095,9.06,73102.5,-11.57,-45.67,-45.47,0,*66
1489255229.34,39096,9.06,73100.3,-11.57,-45.67,-45.61,0,*61
1489255230.6,39097,9.06,73100.3,-11.57,-46.07,-45.81,0,*6B
1489255231.87,39098,9.06,73096.0,-11.55,-46.21,-45.81,0,*62
1489255233.08,39099,9.06,73096.8,-11.57,-46.21,-45.87,0,*67
1489255234.35,39100,9.06,73096.5,-11.55,-46.01,-45.81,0,*60
1489255235.59,39101,9.06,73098.0,-11.57,-46.07,-45.87,0,*63
1489255236.8,39102,9.06,73098.5,-11.57,-46.21,-45.87,0,*64
1489255238.03,39103,9.06,73104.3,-11.57,-45.81,-45.41,0,*66
1489255239.26,39104,9.06,73100.3,-11.57,-45.67,-45.47,0,*6F
1489255240.51,39105,9.06,73102.3,-11.57,-46.01,-45.81,0,*67
1489255241.72,39106,9.06,73102.0,-11.57,-46.01,-45.61,0,*6A
1489255242.94,39107,9.06,73100.8,-11.57,-46.01,-45.67,0,*6D
1489255244.14,39108,9.06,73100.5,-11.57,-45.87,-45.67,0,*6F
1489255245.35,39109,9.06,73102.0,-11.57,-45.87,-45.67,0,*6E
1489255246.61,39110,9.06,73096.5,-11.55,-45.73,-45.53,0,*68
1489255247.82,39111,9.06,73102.5,-11.57,-45.87,-45.67,0,*67
1489255249.03,39112,9.06,73102.5,-11.57,-46.01,-45.67,0,*69
1489255250.29,39113,9.06,73096.5,-11.55,-45.95,-45.81,0,*6C
1489255251.53,39114,9.06,73098.0,-11.57,-45.87,-45.81,0,*6A
1489255252.77,39115,9.06,73100.5,-11.57,-46.01,-45.81,0,*66
1489255254.04,39116,9.06,73096.8,-11.57,-46.15,-46.07,0,*6D
1489255255.31,39117,9.06,73094.5,-11.57,-46.41,-46.07,0,*6D
1489255256.58,39118,9.06,73094.5,-11.57,-46.27,-46.07,0,*62
1489255257.79,39119,9.06,73092.5,-11.57,-46.75,-46.75,0,*61
1489255259.04,39120,9.06,73092.0,-11.57,-46.49,-46.21,0,*65
1489255260.29,39121,9.06,73092.8,-11.57,-46.69,-46.61,0,*62
1489255261.53,39122,9.06,73090.8,-11.57,-46.75,-46.61,0,*6C
1489255262.77,39123,9.06,73092.0,-11.57,-46.97,-46.89,0,*67
1489255264.01,39124,9.06,73092.5,-11.59,-47.09,-47.09,0,*61
1489255265.25,39125,9.06,73096.5,-11.61,-47.03,-47.17,0,*6E
1489255266.46,39126,9.06,73094.8,-11.61,-46.97,-46.97,0,*68
1489255267.71,39127,9.06,73096.3,-11.61,-46.55,-46.49,0,*64
1489255268.95,39128,9.06,73094.8,-11.61,-46.27,-45.87,0,*6F
1489255270.19,39129,9.06,73094.3,-11.61,-46.27,-45.95,0,*6D
1489255271.44,39130,9.06,73096.0,-11.61,-46.27,-45.95,0,*65
1489255272.7,39131,9.06,73092.8,-11.61,-46.49,-46.27,0,*66
1489255273.98,39132,9.06,73092.3,-11.61,-46.15,-46.07,0,*6E
1489255275.25,39133,9.06,73092.3,-11.61,-46.49,-46.15,0,*65
1489255276.52,39134,9.06,73088.8,-11.65,-46.41,-46.15,0,*6E
1489255277.73,39135,9.06,73088.5,-11.65,-46.21,-45.95,0,*62
1489255278.96,39136,9.06,73088.5,-11.65,-46.21,-46.01,0,*6F
1489255280.18,39137,9.06,73088.8,-11.65,-46.35,-45.95,0,*65
1489255281.4,39138,9.06,73090.3,-11.65,-46.35,-46.01,0,*64
1489255282.66,39139,9.06,73092.0,-11.65,-46.35,-46.15,0,*60
1489255283.9,39140,9.06,73090.5,-11.65,-46.41,-46.21,0,*6A
1489255285.17,39141,9.06,73090.5,-11.61,-46.15,-46.07,0,*6A
1489255286.44,39142,9.06,73090.5,-11.61,-46.27,-46.07,0,*68
1489255287.69,39143,9.06,73092.0,-11.65,-46.01,-45.81,0,*64
1489255288.93,39144,9.06,73090.5,-11.65,-46.01,-45.81,0,*63
1489255290.16,39145,9.06,73090.0,-11.65,-46.21,-46.01,0,*6B
1489255291.4,39146,9.06,73088.3,-11.65,-46.15,-45.95,0,*61
1489255292.64,39147,9.06,73088.3,-11.65,-45.95,-45.73,0,*63
1489255293.88,39148,9.06,73092.5,-11.65,-45.81,-45.61,0,*6A
1489255295.11,39149,9.06,73088.8,-11.65,-45.73,-45.61,0,*66
1489255296.35,39150,9.06,73094.5,-11.61,-45.87,-45.73,0,*62
1489255297.58,39151,9.06,73090.3,-11.61,-45.87,-45.73,0,*63
1489255298.84,39152,9.06,73090.5,-11.59,-45.87,-45.73,0,*6B
1489255300.08,39153,9.06,73092.8,-11.61,-46.15,-45.95,0,*61
1489255301.32,39154,9.06,73092.5,-11.61,-46.27,-45.95,0,*67
1489255302.57,39155,9.06,73090.0,-11.61,-46.27,-45.95,0,*66
1489255303.81,39156,9.06,73092.3,-11.61,-46.15,-45.95,0,*64
1489255305.05,39157,9.06,73092.5,-11.61,-46.27,-45.95,0,*64
1489255306.3,39158,9.06,73094.8,-11.61,-46.27,-45.95,0,*6B
1489255307.57,39159,9.06,73092.5,-11.61,-46.27,-46.07,0,*62
1489255308.82,39160,9.06,73092.3,-11.65,-46.15,-46.01,0,*6B
1489255310.04,39161,9.06,73088.8,-11.65,-46.21,-46.01,0,*6D
1489255311.26,39162,9.06,73092.0,-11.65,-46.01,-45.95,0,*62
1489255312.48,39163,9.06,73090.8,-11.65,-46.01,-45.95,0,*63
1489255313.7,39164,9.06,73090.8,-11.65,-46.01,-45.95,0,*64
1489255314.94,39165,9.06,73092.3,-11.65,-46.41,-46.21,0,*6D
1489255316.22,39166,9.06,73102.8,-11.65,-46.15,-46.15,0,*68
1489255317.44,39167,9.06,73096.5,-11.65,-46.01,-45.95,0,*67
1489255318.65,39168,9.06,73100.3,-11.65,-45.61,-45.41,0,*64
1489255319.92,39169,9.06,73098.8,-11.65,-45.27,-45.07,0,*65
1489255321.17,39170,9.06,73096.0,-11.65,-45.53,-45.27,0,*6C
1489255322.43,39171,9.06,73096.3,-11.61,-45.47,-45.27,0,*6C
1489255323.72,39172,9.06,73102.5,-11.59,-45.47,-45.27,0,*64
1489255324.94,39173,9.06,73102.3,-11.61,-45.53,-45.53,0,*68
1489255326.19,39174,9.06,73104.8,-11.59,-45.81,-45.67,0,*6C
1489255327.43,39175,9.06,73102.3,-11.61,-46.07,-45.95,0,*66
1489255328.7,39176,9.06,73106.8,-11.59,-45.87,-45.81,0,*60
1489255329.91,39177,9.06,73100.5,-11.61,-45.95,-45.87,0,*6F
1489255331.14,39178,9.06,73100.0,-11.61,-45.73,-45.53,0,*61
1489255332.38,39179,9.06,73098.8,-11.59,-45.87,-45.87,0,*69
1489255333.62,39180,9.06,73094.5,-11.61,-46.07,-45.87,0,*6F
1489255334.87,39181,9.06,73098.0,-11.61,-45.73,-45.73,0,*65
1489255336.1,39182,9.06,73098.0,-11.61,-45.73,-45.67,0,*63
1489255337.34,39183,9.06,73100.0,-11.61,-45.73,-45.53,0,*65
1489255338.54,39184,9.06,73100.8,-11.61,-45.33,-45.33,0,*60
1489255339.78,39185,9.06,73100.8,-11.61,-45.47,-45.33,0,*62
1489255341.04,39186,9.06,73102.8,-11.59,-45.41,-45.27,0,*69
1489255342.3,39187,9.06,73098.0,-11.59,-45.61,-45.47,0,*6C
1489255343.54,39188,9.06,73100.8,-11.59,-45.67,-45.61,0,*61
1489255344.78,39189,9.06,73100.5,-11.59,-45.67,-45.61,0,*60
1489255346.04,39190,9.06,73100.8,-11.59,-45.81,-45.67,0,*66
1489255347.3,39191,9.06,73100.5,-11.59,-45.87,-45.81,0,*69
1489255348.57,39192,9.06,73102.0,-11.59,-46.01,-45.81,0,*67
1489255349.81,39193,9.06,73100.3,-11.59,-46.21,-45.87,0,*62
1489255351.08,39194,9.06,73098.0,-11.59,-46.07,-45.95,0,*62
1489255352.32,39195,9.06,73096.3,-11.59,-46.21,-45.87,0,*64
1489255353.58,39196,9.06,73098.0,-11.59,-46.07,-45.87,0,*63
1489255354.82,39197,9.06,73096.5,-11.61,-46.27,-45.95,0,*68
1489255356.07,39198,9.06,73092.8,-11.59,-46.21,-46.01,0,*64
1489255357.32,39199,9.06,73094.3,-11.59,-46.21,-46.01,0,*65
1489255358.59,39200,9.06,73094.3,-11.59,-46.07,-46.01,0,*62
1489255359.86,39201,9.06,73092.0,-11.59,-46.01,-45.81,0,*6E
1489255361.1,39202,9.06,73092.0,-11.61,-46.01,-45.81,0,*66
1489255362.36,39203,9.06,73090.8,-11.59,-45.81,-45.67,0,*6F
1489255363.59,39204,9.06,73092.3,-11.59,-45.87,-45.67,0,*6E
1489255364.83,39205,9.06,73090.8,-11.59,-46.01,-45.87,0,*6C
1489255366.08,39206,9.06,73090.5,-11.61,-46.27,-45.95,0,*63
1489255367.37,39207,9.06,73090.5,-11.59,-46.41,-46.07,0,*61
1489255368.62,39208,9.06,73088.3,-11.61,-46.35,-46.15,0,*65
1489255369.89,39209,9.06,73090.8,-11.61,-46.27,-46.07,0,*64
1489255371.16,39210,9.06,73090.3,-11.59,-46.21,-46.07,0,*61
1489255372.45,39211,9.06,73094.3,-11.59,-46.41,-46.07,0,*66
1489255373.69,39212,9.06,73092.5,-11.65,-46.41,-46.35,0,*6B
1489255374.91,39213,9.06,73094.5,-11.65,-46.55,-46.21,0,*6A
1489255376.18,39214,9.06,73094.5,-11.65,-46.41,-46.15,0,*6F
1489255377.4,39215,9.06,73094.5,-11.65,-46.55,-46.21,0,*6C
1489255378.62,39216,9.06,73090.0,-11.65,-46.21,-46.01,0,*6E
1489255379.87,39217,9.06,73094.3,-11.65,-46.21,-46.15,0,*6A
1489255381.09,39218,9.06,73090.8,-11.65,-46.21,-46.01,0,*60
1489255382.34,39219,9.06,73092.0,-11.65,-46.35,-46.15,0,*61
1489255383.59,39220,9.06,73092.5,-11.65,-46.35,-46.15,0,*6B
1489255384.81,39221,9.06,73088.8,-11.65,-46.21,-45.95,0,*64
1489255386.05,39222,9.06,73092.8,-11.65,-46.21,-46.15,0,*6C
1489255387.3,39223,9.06,73092.0,-11.65,-46.35,-46.15,0,*68
1489255388.55,39224,9.06,73094.5,-11.65,-46.21,-46.15,0,*6A
1489255389.8,39225,9.06,73098.0,-11.67,-46.35,-46.21,0,*6B
1489255391.06,39226,9.06,73094.8,-11.67,-46.41,-46.21,0,*6B
1489255392.3,39227,9.06,73096.3,-11.65,-46.55,-46.41,0,*6B
1489255393.52,39228,9.06,73098.5,-11.65,-46.55,-46.35,0,*67
1489255394.77,39229,9.06,73096.5,-11.67,-46.55,-46.35,0,*64
1489255396.03,39230,9.06,73096.8,-11.67,-46.55,-46.41,0,*6F
1489255397.3,39231,9.06,73100.5,-11.67,-46.55,-46.41,0,*6E
1489255398.57,39232,9.06,73096.8,-11.67,-46.61,-46.35,0,*69
1489255399.83,39233,9.06,73096.8,-11.67,-46.61,-46.35,0,*68
1489255401.1,39234,9.06,73098.8,-11.67,-46.41,-46.35,0,*6D
1489255402.37,39235,9.06,73098.8,-11.67,-46.35,-46.15,0,*6D
1489255403.62,39236,9.06,73098.0,-11.69,-46.27,-46.21,0,*64
1489255404.92,39237,9.06,73102.8,-11.71,-46.41,-46.27,0,*6A
1489255406.14,39238,9.06,73100.3,-11.69,-46.21,-46.01,0,*6E
1489255407.38,39239,9.06,73102.8,-11.69,-45.87,-45.81,0,*6B
1489255408.62,39240,9.06,73100.8,-11.69,-45.47,-45.41,0,*65
1489255409.86,39241,9.06,73102.0,-11.69,-45.47,-45.41,0,*64
1489255411.08,39242,9.06,73106.5,-11.69,-45.61,-45.41,0,*63
1489255412.34,39243,9.06,73106.8,-11.67,-45.53,-45.27,0,*6D
1489255413.56,39244,9.06,73104.5,-11.65,-45.61,-45.61,0,*6B
1489255414.81,39245,9.06,73106.3,-11.67,-45.61,-45.53,0,*69
1489255416.04,39246,9.06,73108.3,-11.65,-45.81,-45.61,0,*67
1489255417.29,39247,9.06,73110.0,-11.67,-45.95,-45.61,0,*61
1489255418.52,39248,9.06,73108.3,-11.65,-45.95,-45.73,0,*6F
1489255419.79,39249,9.06,73110.3,-11.67,-46.01,-45.73,0,*62
1489255421.05,39250,9.06,73110.0,-11.67,-45.95,-45.73,0,*64
1489255422.29,39251,9.06,73108.0,-11.65,-45.95,-45.73,0,*67
1489255423.53,39252,9.06,73108.3,-11.65,-45.95,-45.73,0,*64
1489255424.79,39253,9.06,73106.3,-11.67,-45.81,-45.53,0,*60
1489255426.01,39254,9.06,73106.5,-11.65,-45.53,-45.33,0,*6C
1489255427.24,39255,9.06,73106.5,-11.65,-45.73,-45.41,0,*6A
1489255428.51,39256,9.06,73102.8,-11.67,-45.95,-45.81,0,*6F
1489255429.75,39257,9.06,73096.8,-11.65,-46.15,-45.95,0,*62
1489255431.03,39258,9.0,73096.5,-11.67,-46.15,-46.01,0,*61
1489255432.3,39259,9.06,73098.5,-11.67,-46.15,-45.95,0,*6E
1489255433.55,39260,9.06,73102.0,-11.65,-46.01,-45.81,0,*66
1489255434.79,39261,9.06,73098.3,-11.65,-46.01,-45.73,0,*6A
1489255436.09,39262,9.06,73102.5,-11.67,-46.15,-45.81,0,*63
1489255437.33,39263,9.06,73100.0,-11.65,-45.95,-45.81,0,*6B
1489255438.59,39264,9.06,73100.0,-11.67,-45.81,-45.61,0,*65
1489255439.85,39265,9.06,73102.5,-11.67,-45.81,-45.61,0,*64
1489255441.11,39266,9.06,73096.0,-11.65,-45.81,-45.73,0,*66
1489255442.33,39267,9.06,73094.3,-11.65,-45.61,-45.53,0,*6B
1489255443.54,39268,9.06,73094.3,-11.65,-45.61,-45.41,0,*67
1489255444.78,39269,9.06,73096.0,-11.61,-45.47,-45.33,0,*63
1489255445.99,39270,9.0,73090.5,-11.61,-45.95,-45.87,0,*6B
1489255447.21,39271,9.0,73086.0,-11.65,-46.01,-45.95,0,*63
1489255448.43,39272,9.06,73086.0,-11.65,-46.01,-45.95,0,*60
1489255449.64,39273,9.0,73084.0,-11.65,-45.95,-45.95,0,*6F
1489255450.89,39274,9.0,73080.3,-11.67,-46.21,-46.01,0,*68
1489255452.14,39275,9.06,73088.0,-11.65,-46.15,-45.95,0,*62
1489255453.4,39276,9.06,73084.5,-11.65,-45.81,-45.73,0,*67
1489255454.63,39277,9.06,73086.8,-11.65,-45.81,-45.61,0,*65
1489255455.87,39278,9.06,73086.0,-11.65,-45.81,-45.53,0,*6B
1489255457.11,39279,9.06,73088.3,-11.65,-45.81,-45.53,0,*6A
1489255458.33,39280,9.0,73082.8,-11.65,-45.61,-45.53,0,*62
1489255459.55,39281,9.06,73088.8,-11.65,-45.53,-45.33,0,*64
1489255460.76,39282,9.06,73092.3,-11.65,-45.41,-45.13,0,*66
1489255461.99,39283,9.06,73090.3,-11.65,-45.41,-45.27,0,*60
1489255463.23,39284,9.06,73090.0,-11.65,-45.73,-45.53,0,*65
1489255464.47,39285,9.06,73088.0,-11.65,-45.73,-45.53,0,*64
1489255465.71,39286,9.06,73088.8,-11.65,-45.81,-45.53,0,*6A
1489255466.95,39287,9.0,73090.3,-11.65,-46.15,-45.95,0,*6F
1489255468.16,39288,9.06,73088.3,-11.61,-45.95,-45.67,0,*62
1489255469.37,39289,9.06,73088.0,-11.61,-45.87,-45.53,0,*67
1489255470.64,39290,9.06,73088.0,-11.61,-46.07,-45.73,0,*66
1489255471.88,39291,9.06,73084.3,-11.61,-46.07,-45.95,0,*6F
1489255473.1,39292,9.06,73082.8,-11.61,-45.73,-45.67,0,*61
1489255474.32,39293,9.06,73080.5,-11.61,-45.87,-45.53,0,*6C
1489255475.55,39294,9.06,73082.8,-11.61,-45.67,-45.47,0,*60
1489255476.84,39295,9.06,73084.0,-11.59,-45.47,-45.27,0,*6E
1489255478.07,39296,9.06,73088.0,-11.61,-45.73,-45.53,0,*62
1489255479.28,39297,9.06,73090.5,-11.61,-45.33,-45.21,0,*62
1489255480.5,39298,9.06,73086.5,-11.61,-45.67,-45.53,0,*69
1489255481.71,39299,9.0,73084.3,-11.61,-45.87,-45.53,0,*66
1489255482.95,39300,9.0,73082.3,-11.61,-45.61,-45.27,0,*6C
1489255484.18,39301,9.06,73086.8,-11.61,-45.33,-45.27,0,*6A
1489255485.43,39302,9.06,73086.0,-11.61,-45.27,-44.99,0,*68
1489255486.73,39303,9.0,73088.0,-11.59,-45.27,-44.93,0,*68
1489255487.96,39304,9.06,73090.0,-11.59,-45.41,-45.13,0,*66
1489255489.23,39305,9.06,73088.0,-11.59,-45.27,-45.21,0,*66
1489255490.49,39306,9.06,73088.5,-11.59,-45.41,-45.27,0,*63
1489255491.76,39307,9.0,73086.8,-11.59,-45.47,-45.41,0,*64
1489255493.02,39308,9.0,73086.8,-11.59,-45.61,-45.47,0,*69
1489255494.25,39309,9.06,73092.8,-11.59,-45.87,-45.67,0,*62
1489255495.5,39310,9.06,73090.8,-11.59,-46.01,-45.87,0,*69
1489255496.77,39311,9.0,73088.0,-11.59,-46.27,-46.01,0,*61
1489255498.04,39312,9.06,73092.5,-11.59,-46.07,-45.87,0,*6D
1489255499.3,39313,9.06,73090.8,-11.59,-46.07,-45.87,0,*6C
1489255500.54,39314,9.06,73092.8,-11.59,-46.21,-45.87,0,*6F
1489255501.82,39315,9.06,73092.8,-11.61,-46.27,-46.15,0,*6B
1489255503.11,39316,9.06,73094.5,-11.59,-46.41,-46.07,0,*60
1489255504.38,39317,9.06,73092.5,-11.61,-46.49,-46.27,0,*60
1489255505.62,39318,9.0,73092.5,-11.61,-46.49,-46.35,0,*6C
1489255506.89,39319,9.06,73092.5,-11.61,-46.49,-46.27,0,*6E
1489255508.15,39320,9.06,73092.3,-11.59,-46.41,-46.21,0,*61
1489255509.4,39321,9.06,73092.8,-11.61,-46.49,-46.35,0,*66
1489255510.67,39322,9.06,73096.8,-11.61,-46.49,-46.49,0,*6E
1489255511.93,39323,9.06,73094.0,-11.65,-46.61,-46.61,0,*6B
1489255513.17,39324,9.0,73088.8,-11.67,-46.75,-46.55,0,*6C
1489255514.43,39325,9.0,73092.0,-11.65,-46.61,-46.61,0,*6D
1489255515.67,39326,9.06,73094.5,-11.65,-46.75,-46.61,0,*6B
1489255516.91,39327,9.0,73092.5,-11.65,-46.61,-46.55,0,*68
1489255518.2,39328,9.0,73096.3,-11.67,-46.61,-46.41,0,*60
1489255519.45,39329,9.0,73094.8,-11.67,-46.55,-46.35,0,*65
1489255520.71,39330,9.0,73094.5,-11.67,-46.41,-46.21,0,*6D
1489255521.98,39331,9.06,73096.3,-11.67,-46.15,-45.95,0,*61
1489255523.22,39332,9.06,73094.0,-11.69,-45.87,-45.81,0,*61
1489255524.44,39333,9.0,73094.8,-11.69,-45.61,-45.33,0,*61
1489255525.7,39334,9.0,73092.0,-11.67,-46.01,-45.73,0,*69
1489255526.94,39335,9.0,73094.5,-11.65,-45.95,-45.81,0,*69
1489255528.16,39336,9.0,73092.3,-11.65,-45.95,-45.95,0,*6F
1489255529.4,39337,9.06,73096.0,-11.67,-45.95,-45.95,0,*6C
1489255530.66,39338,9.06,73094.3,-11.67,-45.73,-45.53,0,*61
1489255531.93,39339,9.0,73090.5,-11.67,-45.95,-45.81,0,*67
1489255533.19,39340,9.06,73096.3,-11.67,-45.95,-45.81,0,*69
1489255534.43,39341,9.0,73092.5,-11.65,-45.95,-45.81,0,*6A
1489255535.68,39342,9.06,73098.0,-11.67,-46.01,-46.01,0,*6E
1489255536.9,39343,9.0,73098.3,-11.65,-45.95,-45.95,0,*6D
1489255538.17,39344,9.0,73094.3,-11.67,-46.01,-45.81,0,*63
1489255539.44,39345,9.0,73092.5,-11.67,-46.15,-45.95,0,*62
1489255540.7,39346,9.0,73096.5,-11.67,-45.73,-45.61,0,*69
1489255541.99,39347,9.0,73092.8,-11.67,-45.81,-45.81,0,*6B
1489255543.26,39348,9.0,73092.3,-11.67,-46.01,-45.81,0,*6F
1489255544.53,39349,9.0,73094.5,-11.67,-46.01,-45.81,0,*6E
1489255545.79,39350,9.0,73094.8,-11.67,-45.95,-45.73,0,*65
1489255547.05,39351,9.0,73094.5,-11.67,-45.95,-45.73,0,*64
1489255548.34,39352,9.06,73098.5,-11.67,-45.81,-45.81,0,*6F
1489255549.6,39353,9.0,73096.5,-11.67,-45.81,-45.61,0,*60
1489255550.83,39354,9.0,73098.3,-11.67,-45.41,-45.33,0,*6C
1489255552.07,39355,9.0,73098.8,-11.67,-45.61,-45.41,0,*6A
1489255553.31,39356,9.0,73098.8,-11.67,-45.41,-45.33,0,*6E
1489255554.53,39357,9.0,73096.3,-11.65,-45.53,-45.33,0,*6E
1489255555.75,39358,9.0,73098.3,-11.65,-45.53,-45.41,0,*64
1489255556.97,39359,9.0,73096.3,-11.65,-45.53,-45.41,0,*65
1489255558.18,39360,9.0,73096.8,-11.65,-45.61,-45.41,0,*6E
1489255559.39,39361,9.0,73096.5,-11.65,-45.61,-45.41,0,*6F
1489255560.63,39362,9.0,73094.8,-11.65,-45.73,-45.61,0,*6D
1489255561.87,39363,9.0,73098.5,-11.65,-45.73,-45.61,0,*6C
1489255563.14,39364,9.0,73096.0,-11.61,-46.07,-46.07,0,*6C
1489255564.41,39365,9.0,73092.3,-11.67,-46.15,-45.95,0,*60
1489255565.65,39366,9.0,73092.5,-11.65,-45.81,-45.61,0,*64
1489255566.86,39367,9.0,73094.5,-11.65,-45.53,-45.41,0,*68
1489255568.1,39368,9.0,73092.8,-11.65,-45.73,-45.41,0,*65
1489255569.32,39369,9.0,73094.8,-11.65,-45.61,-45.53,0,*64
1489255570.55,39370,9.0,73094.8,-11.65,-45.73,-45.61,0,*6E
1489255571.78,39371,9.0,73096.5,-11.65,-45.53,-45.53,0,*6C
1489255572.99,39372,9.0,73094.3,-11.65,-45.41,-45.33,0,*6A
1489255574.2,39373,9.0,73096.0,-11.61,-45.33,-45.21,0,*69
1489255575.41,39374,9.0,73096.8,-11.61,-45.21,-44.99,0,*6F
1489255576.63,39375,9.0,73096.5,-11.61,-45.21,-44.99,0,*6E
1489255577.9,39376,9.0,73098.0,-11.59,-45.27,-45.21,0,*62
1489255579.17,39377,9.0,73092.5,-11.59,-45.27,-45.13,0,*62
1489255580.44,39378,9.0,73098.0,-11.59,-45.27,-45.13,0,*6D
1489255581.68,39379,9.0,73096.8,-11.57,-45.27,-44.99,0,*61
1489255582.92,39380,9.0,73098.8,-11.59,-45.21,-45.13,0,*6C
1489255584.16,39381,9.0,73098.5,-11.59,-45.13,-44.99,0,*6F
1489255585.42,39382,9.0,73096.0,-11.59,-45.41,-45.27,0,*6F
1489255586.68,39383,9.0,73096.0,-11.59,-45.41,-45.27,0,*6E
1489255587.96,39384,9.0,73096.0,-11.59,-45.27,-45.21,0,*6F
1489255589.24,39385,9.0,73098.0,-11.59,-45.27,-45.21,0,*6E
1489255590.48,39386,9.0,73098.3,-11.57,-45.27,-44.99,0,*61
1489255591.77,39387,9.0,73096.5,-11.55,-45.07,-44.93,0,*6A
1489255592.99,39388,9.0,73100.0,-11.57,-45.21,-44.99,0,*69
1489255594.22,39389,9.0,73100.0,-11.55,-45.33,-45.33,0,*68
1489255595.46,39390,9.0,73096.8,-11.55,-45.33,-45.21,0,*63
1489255596.71,39391,9.0,73098.0,-11.55,-45.73,-45.41,0,*60
1489255597.93,39392,9.0,73102.0,-11.57,-45.53,-45.41,0,*63
1489255599.17,39393,9.0,73100.3,-11.57,-45.21,-45.07,0,*65
1489255600.38,39394,9.0,73098.5,-11.57,-45.13,-44.79,0,*6B
1489255601.62,39395,9.0,73102.3,-11.55,-45.13,-44.87,0,*69
1489255602.89,39396,9.0,73102.5,-11.55,-45.21,-44.93,0,*6E
1489255604.13,39397,9.0,73102.5,-11.55,-45.53,-45.41,0,*64
1489255605.39,39398,9.0,73098.5,-11.55,-45.73,-45.53,0,*6A
1489255606.66,39399,9.0,73098.5,-11.55,-45.73,-45.53,0,*6B
1489255607.9,39400,9.0,73100.0,-11.51,-45.53,-45.33,0,*6C
1489255609.13,39401,9.0,73094.3,-11.55,-45.53,-45.13,0,*6B
1489255610.38,39402,9.0,73094.5,-11.55,-45.53,-45.41,0,*6F
1489255611.61,39403,9.0,73092.3,-11.51,-45.61,-45.41,0,*6B
1489255612.85,39404,9.0,73092.8,-11.55,-45.61,-45.33,0,*6D
1489255614.09,39405,9.0,73092.5,-11.51,-45.61,-45.41,0,*6D
1489255615.34,39406,9.0,73092.5,-11.51,-45.73,-45.41,0,*6D
1489255616.6,39407,9.0,73090.8,-11.51,-45.73,-45.61,0,*6E
1489255617.84,39408,9.0,73090.0,-11.51,-45.53,-45.33,0,*64
1489255619.07,39409,9.0,73092.3,-11.51,-45.33,-45.33,0,*63
1489255620.31,39410,9.0,73090.8,-11.51,-45.53,-45.21,0,*6E
1489255621.55,39411,9.0,73098.3,-11.51,-45.53,-45.41,0,*69
1489255622.78,39412,9.0,73090.0,-11.51,-45.21,-45.13,0,*68
1489255624.02,39413,9.0,73090.3,-11.51,-45.33,-45.21,0,*6B
1489255625.25,39414,9.0,73090.3,-11.49,-45.47,-45.13,0,*67
1489255626.49,39415,9.0,73088.5,-11.49,-45.53,-45.27,0,*64
1489255627.72,39416,9.0,73092.3,-11.51,-45.33,-45.21,0,*6E
1489255628.95,39417,9.0,73092.5,-11.49,-45.47,-45.13,0,*64
1489255630.19,39418,9.0,73092.3,-11.49,-45.53,-45.27,0,*69
1489255631.45,39419,9.0,73092.8,-11.49,-45.47,-45.27,0,*6D
1489255632.65,39420,9.0,73092.8,-11.49,-45.33,-45.13,0,*63
1489255633.86,39421,9.0,73090.3,-11.49,-45.33,-45.33,0,*60
1489255635.08,39422,9.0,73090.3,-11.49,-45.53,-45.33,0,*65
1489255636.29,39423,9.0,73090.8,-11.49,-45.67,-45.53,0,*65
1489255637.52,39424,9.0,73092.5,-11.49,-45.73,-45.53,0,*67
1489255638.75,39425,9.0,73094.5,-11.49,-45.87,-45.73,0,*6F
1489255640.01,39426,9.0,73092.0,-11.49,-45.73,-45.73,0,*67
1489255641.27,39427,9.0,73094.3,-11.51,-45.81,-45.61,0,*61
1489255642.53,39428,9.0,73096.3,-11.51,-46.01,-45.81,0,*6B
1489255643.76,39429,9.0,73092.8,-11.49,-45.73,-45.67,0,*6D
1489255644.99,39430,9.0,73094.3,-11.49,-45.73,-45.53,0,*62
1489255646.25,39431,9.0,73094.3,-11.51,-45.41,-45.07,0,*6A
1489255647.49,39432,9.0,73092.0,-11.49,-45.27,-45.13,0,*65
1489255648.73,39433,9.0,73096.3,-11.49,-45.27,-45.13,0,*64
1489255649.96,39434,9.0,73092.5,-11.49,-45.33,-45.27,0,*61
1489255651.18,39435,9.0,73094.3,-11.49,-45.67,-45.53,0,*62
1489255652.39,39436,9.0,73092.5,-11.49,-45.67,-45.53,0,*61
1489255653.6,39437,9.0,73094.3,-11.45,-45.61,-45.41,0,*69
1489255654.81,39438,9.0,73094.8,-11.45,-45.61,-45.41,0,*66
1489255656.05,39439,9.0,73094.8,-11.45,-45.81,-45.61,0,*6B
1489255657.28,39440,9.0,73098.0,-11.45,-45.67,-45.47,0,*69
1489255658.51,39441,9.0,73094.3,-11.47,-45.87,-45.67,0,*66
1489255659.8,39442,9.0,73096.5,-11.47,-46.07,-45.73,0,*6B
1489255661.03,39443,9.0,73096.3,-11.45,-45.81,-45.67,0,*60
1489255662.29,39444,9.0,73102.3,-11.47,-45.87,-45.73,0,*66
1489255663.55,39445,9.0,73096.8,-11.47,-45.95,-45.73,0,*64
1489255664.79,39446,9.0,73102.8,-11.47,-45.95,-45.67,0,*62
1489255666.02,39447,9.0,73098.8,-11.47,-45.87,-45.67,0,*60
1489255667.28,39448,9.0,73098.3,-11.47,-45.67,-45.47,0,*63
1489255668.52,39449,9.0,73100.0,-11.47,-45.67,-45.53,0,*67
1489255669.76,39450,9.0,73100.0,-11.47,-45.87,-45.53,0,*61
1489255671.01,39451,9.0,73104.8,-11.47,-45.73,-45.67,0,*6C
1489255672.25,39452,9.0,73104.0,-11.47,-45.67,-45.53,0,*6D
1489255673.51,39453,9.0,73102.8,-11.47,-45.87,-45.73,0,*60
1489255674.75,39454,9.0,73104.5,-11.45,-46.01,-45.81,0,*65
1489255676.02,39455,9.0,73098.8,-11.47,-46.15,-45.87,0,*65
1489255677.29,39456,9.0,73100.8,-11.47,-46.15,-45.95,0,*65
1489255678.5,39457,9.0,73098.5,-11.49,-45.95,-45.87,0,*62
1489255679.74,39458,9.0,73098.8,-11.49,-46.07,-45.87,0,*65
1489255681.01,39459,9.0,73098.3,-11.47,-46.07,-45.87,0,*6A
1489255682.27,39460,9.0,73096.3,-11.47,-45.95,-45.73,0,*63
1489255683.53,39461,9.0,73102.5,-11.47,-45.95,-45.73,0,*62
1489255684.77,39462,9.0,73102.0,-11.47,-45.95,-45.67,0,*64
1489255686.0,39463,9.0,73102.0,-11.47,-45.95,-45.67,0,*65
1489255687.26,39464,9.0,73106.5,-11.47,-45.73,-45.53,0,*6D
1489255688.5,39465,9.0,73096.8,-11.47,-45.67,-45.53,0,*69
1489255689.74,39466,9.0,73100.3,-11.47,-45.87,-45.53,0,*64
1489255690.98,39467,9.0,73098.5,-11.47,-45.87,-45.53,0,*65
1489255692.24,39468,9.0,73096.5,-11.47,-45.73,-45.53,0,*61
1489255693.47,39469,9.0,73098.5,-11.45,-45.67,-45.47,0,*62
1489255694.73,39470,9.0,73098.0,-11.47,-45.73,-45.53,0,*68
1489255695.97,39471,9.0,73096.8,-11.47,-45.87,-45.53,0,*62
1489255697.21,39472,9.0,73094.8,-11.47,-45.53,-45.33,0,*6E
1489255698.43,39473,9.0,73096.8,-11.45,-45.61,-45.41,0,*69
1489255699.68,39474,9.0,73098.0,-11.47,-45.73,-45.67,0,*6B
1489255700.91,39475,9.0,73096.3,-11.45,-45.81,-45.67,0,*65